Waarnemingen

Advertentie
Mijn weer
Stockholm/Arlanda, Zweden (2460): temperatuur & dauwpunt: 17.05.2018 22:00:00 - 23.05.2018 22:00:00 (CEST)Stockholm/Arlanda, Zweden (2460): windsnelheid: 17.05.2018 22:00:00 - 23.05.2018 22:00:00 (CEST)Stockholm/Arlanda, Zweden (2460): windrichting: 17.05.2018 22:00:00 - 23.05.2018 22:00:00 (CEST)Stockholm/Arlanda, Zweden (2460): luchtdruk: 17.05.2018 22:00:00 - 23.05.2018 22:00:00 (CEST)Stockholm/Arlanda, Zweden (2460): zicht: 17.05.2018 22:00:00 - 23.05.2018 22:00:00 (CEST)
Datum & Tijd tt [°C] td [°C] ff [km/u] ff [kn] dd ppp [hPa] vv [km]
23.05.2018 22:00:00 11,3 2,3 7 4 NNO 1029,3 50
23.05.2018 21:00:00 13,9 2,8 11 6 NNO 1028,5 45
23.05.2018 20:00:00 15,7 3,5 14 8 NNO 1027,9 45
23.05.2018 19:00:00 16,5 3,9 18 10 NNO 1027,4 50
23.05.2018 18:00:00 17,3 3,9 14 8 N 1026,9 45
23.05.2018 17:00:00 17,9 4,8 18 10 N 1026,7 45
23.05.2018 16:00:00 17,7 5,0 18 10 N 1026,5 45
23.05.2018 15:00:00 17,9 5,5 18 10 N 1026,1 35
23.05.2018 14:00:00 17,4 5,3 25 14 NNO 1025,8 45
23.05.2018 13:00:00 17,4 6,0 22 12 N 1025,1 45
23.05.2018 12:00:00 16,3 6,4 18 10 N 1024,4 40
23.05.2018 11:00:00 16,8 7,7 18 10 NNW 1023,5 45
23.05.2018 10:00:00 16,8 8,0 14 8 NW 1022,9 -
23.05.2018 09:00:00 15,7 7,2 18 10 N 1022,2 35
23.05.2018 08:00:00 14,7 7,0 18 10 N 1021,5 40
23.05.2018 07:00:00 13,7 7,2 22 12 N 1021,0 27
23.05.2018 06:00:00 12,5 6,8 11 6 NNW 1020,1 30
23.05.2018 05:00:00 9,1 6,4 7 4 WNW 1019,4 45
23.05.2018 04:00:00 10,5 6,6 4 2 ZZO 1018,9 50
23.05.2018 03:00:00 10,5 6,3 0 0 N 1018,8 50
23.05.2018 02:00:00 12,0 6,1 4 2 Z 1018,7 50
23.05.2018 01:00:00 13,0 5,4 7 4 Z 1018,6 50
23.05.2018 00:00:00 14,1 5,5 4 2 Z 1018,5 45
22.05.2018 23:00:00 15,4 6,1 7 4 Z 1018,2 45
22.05.2018 22:00:00 16,6 5,8 11 6 Z 1018,2 45
22.05.2018 21:00:00 18,4 5,3 14 8 Z 1017,8 45
22.05.2018 20:00:00 20,6 4,6 18 10 ZZO 1017,7 50
22.05.2018 19:00:00 21,2 4,3 22 12 ZZO 1017,7 35
22.05.2018 18:00:00 22,2 4,3 22 12 ZZO 1017,8 40
22.05.2018 17:00:00 22,2 4,3 18 10 Z 1018,2 45
22.05.2018 16:00:00 22,5 4,1 4 2 ZZW 1018,6 35
22.05.2018 15:00:00 22,5 3,6 7 4 ZW 1018,9 45
22.05.2018 14:00:00 23,3 3,8 7 4 ZW 1019,3 40
22.05.2018 13:00:00 22,3 3,9 11 6 ZW 1019,7 40
22.05.2018 12:00:00 21,4 2,1 7 4 ZZO 1020,5 45
22.05.2018 11:00:00 20,6 2,4 4 2 ZO 1021,3 30
22.05.2018 10:00:00 18,5 5,3 7 4 Z 1021,9 40
22.05.2018 09:00:00 16,5 6,6 7 4 ZO 1022,1 45
22.05.2018 08:00:00 15,0 6,8 7 4 ZO 1022,4 35
22.05.2018 07:00:00 12,8 7,7 11 6 OZO 1022,7 30
22.05.2018 06:00:00 11,1 7,2 11 6 ZO 1022,8 40
22.05.2018 05:00:00 10,3 6,8 7 4 ZO 1023,0 45
22.05.2018 04:00:00 10,3 6,4 4 2 ZO 1023,4 40
22.05.2018 03:00:00 8,7 5,6 0 0 N 1023,4 40
22.05.2018 02:00:00 11,9 6,2 4 2 ZZO 1023,6 45
22.05.2018 01:00:00 13,1 6,4 4 2 ZO 1023,9 45
22.05.2018 00:00:00 14,8 6,1 7 4 ZO 1024,1 45
21.05.2018 23:00:00 16,4 5,9 7 4 ZO 1024,2 40
21.05.2018 22:00:00 17,8 5,1 7 4 Z 1024,3 30
21.05.2018 21:00:00 19,3 4,6 11 6 ZZW 1024,3 45
21.05.2018 20:00:00 21,6 6,3 11 6 Z 1024,1 40
21.05.2018 19:00:00 22,7 6,0 14 8 ZZW 1024,1 35
21.05.2018 18:00:00 23,8 6,1 11 6 ZW 1024,3 30
21.05.2018 17:00:00 23,9 6,2 14 8 ZW 1024,7 35
21.05.2018 16:00:00 23,9 5,3 11 6 ZZW 1025,3 30
21.05.2018 15:00:00 23,7 5,6 18 10 ZW 1025,8 35
21.05.2018 14:00:00 23,2 6,0 22 12 ZZW 1026,4 40
21.05.2018 13:00:00 23,1 7,6 22 12 ZW 1026,7 27
21.05.2018 12:00:00 22,0 5,4 22 12 ZW 1027,1 45
21.05.2018 11:00:00 21,6 5,9 18 10 W 1027,3 35
21.05.2018 10:00:00 20,6 6,9 14 8 WZW 1027,6 35
21.05.2018 09:00:00 19,3 6,7 11 6 W 1027,6 35
21.05.2018 08:00:00 17,0 7,6 11 6 ZW 1027,9 24
21.05.2018 07:00:00 15,6 8,1 11 6 ZW 1027,8 35
21.05.2018 06:00:00 12,9 7,3 4 2 ZZW 1027,5 35
21.05.2018 05:00:00 10,2 6,3 4 2 Z 1027,1 40
21.05.2018 04:00:00 10,3 6,1 4 2 ZZO 1026,8 45
21.05.2018 03:00:00 11,4 6,1 7 4 ZZO 1026,5 45
21.05.2018 02:00:00 12,1 5,9 4 2 ZZO 1026,3 50
21.05.2018 01:00:00 12,6 5,7 7 4 Z 1025,9 45
21.05.2018 00:00:00 14,5 5,8 7 4 ZZW 1025,7 40
20.05.2018 23:00:00 15,7 5,6 7 4 ZZW 1025,6 50
20.05.2018 22:00:00 16,5 5,1 7 4 ZW 1025,5 35
20.05.2018 21:00:00 19,6 3,7 7 4 WZW 1025,0 45
20.05.2018 20:00:00 21,6 3,3 11 6 WZW 1024,7 50
20.05.2018 19:00:00 22,5 2,6 14 8 WZW 1024,4 45
20.05.2018 18:00:00 23,3 2,7 14 8 ZW 1024,5 45
20.05.2018 17:00:00 23,3 2,2 18 10 WZW 1025,0 40
20.05.2018 16:00:00 23,9 0,9 18 10 WZW 1025,2 50
20.05.2018 15:00:00 23,6 1,3 22 12 WZW 1025,3 35
20.05.2018 14:00:00 23,6 1,3 18 10 WZW 1025,5 30
20.05.2018 13:00:00 22,7 3,2 22 12 ZW 1025,7 45
20.05.2018 12:00:00 22,2 3,8 18 10 WZW 1026,0 30
20.05.2018 11:00:00 21,3 3,9 14 8 ZW 1025,9 45
20.05.2018 10:00:00 20,4 3,6 14 8 W 1026,0 45
20.05.2018 09:00:00 18,8 4,9 11 6 ZW 1026,0 45
20.05.2018 08:00:00 16,5 5,5 7 4 WZW 1025,8 45
20.05.2018 07:00:00 14,5 5,0 7 4 ZW 1025,3 40
20.05.2018 06:00:00 11,8 4,8 7 4 WZW 1025,1 45
20.05.2018 05:00:00 8,4 4,2 4 2 W 1024,7 45
20.05.2018 04:00:00 9,3 4,1 7 4 WZW 1023,9 45
20.05.2018 03:00:00 10,0 4,2 7 4 WZW 1023,5 50
20.05.2018 02:00:00 10,2 3,9 4 2 WZW 1023,2 45
20.05.2018 01:00:00 11,3 3,3 7 4 WZW 1023,0 50
20.05.2018 00:00:00 11,7 3,0 7 4 ZW 1022,9 50
19.05.2018 23:00:00 12,5 2,6 14 8 ZZW 1022,5 50
19.05.2018 22:00:00 13,6 2,5 11 6 ZZW 1022,5 45
19.05.2018 21:00:00 15,5 2,6 14 8 ZZW 1022,0 50
19.05.2018 20:00:00 17,8 2,9 14 8 ZZW 1021,6 40
19.05.2018 19:00:00 19,7 1,2 14 8 ZW 1021,5 45
19.05.2018 18:00:00 20,1 2,0 14 8 ZW 1021,8 45
19.05.2018 17:00:00 20,0 2,4 14 8 ZW 1022,0 45
19.05.2018 16:00:00 20,7 2,5 4 2 NNW 1022,0 50
19.05.2018 15:00:00 20,0 1,9 7 4 W 1022,1 50
19.05.2018 14:00:00 19,7 1,2 4 2 N 1022,5 29
19.05.2018 13:00:00 17,7 0,4 7 4 W 1023,1 50
19.05.2018 12:00:00 17,7 0,4 7 4 W 1023,1 50
19.05.2018 11:00:00 17,1 0,3 11 6 W 1023,3 45
19.05.2018 10:00:00 15,7 -1,0 4 2 WZW 1023,4 45
19.05.2018 09:00:00 14,6 1,1 7 4 WNW 1023,3 45
19.05.2018 08:00:00 12,6 3,3 4 2 NNW 1023,2 45
19.05.2018 07:00:00 9,0 2,1 4 2 NW 1022,9 45
19.05.2018 06:00:00 3,1 0,3 0 0 N 1022,7 50
19.05.2018 05:00:00 0,9 -0,3 4 2 N 1022,3 40
19.05.2018 04:00:00 0,9 -0,7 4 2 N 1022,2 45
19.05.2018 03:00:00 1,2 -0,3 4 2 N 1021,9 50
19.05.2018 02:00:00 1,8 0,0 7 4 N 1021,7 50
19.05.2018 01:00:00 2,8 0,5 4 2 N 1021,5 50
19.05.2018 00:00:00 2,8 0,2 4 2 NW 1021,4 50
18.05.2018 23:00:00 4,4 0,5 4 2 NNW 1021,3 50
18.05.2018 22:00:00 8,3 0,8 4 2 N 1020,9 50
18.05.2018 21:00:00 11,1 -0,4 7 4 N 1020,5 50
18.05.2018 20:00:00 13,3 -0,4 14 8 N 1020,0 50
18.05.2018 19:00:00 14,5 -0,4 22 12 NNO 1019,8 45
18.05.2018 18:00:00 15,2 -0,6 18 10 N 1019,6 40
18.05.2018 17:00:00 15,6 -1,9 18 10 N 1019,6 35
18.05.2018 16:00:00 15,9 -3,1 25 14 N 1019,5 50
18.05.2018 15:00:00 15,4 -3,0 22 12 N 1019,3 35
18.05.2018 14:00:00 15,0 -3,4 22 12 N 1019,4 24
18.05.2018 13:00:00 15,0 -1,6 22 12 N 1019,2 45
18.05.2018 12:00:00 14,1 -2,4 25 14 N 1019,3 29
18.05.2018 11:00:00 13,6 -1,6 22 12 NNW 1019,1 40
18.05.2018 10:00:00 13,0 -1,7 18 10 N 1019,0 35
18.05.2018 09:00:00 12,3 -0,9 25 14 N 1018,7 30
18.05.2018 08:00:00 11,6 -0,6 22 12 N 1018,1 28
18.05.2018 07:00:00 10,2 1,0 18 10 N 1017,6 30
18.05.2018 06:00:00 9,0 2,1 14 8 NNW 1017,1 40
18.05.2018 05:00:00 7,9 1,7 14 8 N 1016,7 50
18.05.2018 04:00:00 8,0 1,6 14 8 NNW 1016,7 50
18.05.2018 03:00:00 7,6 1,2 11 6 NNW 1016,8 50
18.05.2018 02:00:00 8,2 0,9 14 8 N 1016,5 50
18.05.2018 01:00:00 7,7 0,9 14 8 NNW 1016,6 50
18.05.2018 00:00:00 8,5 0,9 11 6 NNW 1016,8 50
17.05.2018 23:00:00 8,8 0,7 14 8 N 1016,8 50
17.05.2018 22:00:00 9,5 0,7 11 6 N 1016,8 50

tt = temperatuur
td = dauwpunt
ff = windsnelheid
dd = windrichting
ppp = luchtdruk
vv = zicht

Weerstations in de omgeving